sat.trackr.live / text

‹ back to catalog

STARLINK-30770

NORAD 58132 · 2023-162Q

PAYLOAD ACTIVE UNKNOWN

§ Identity

Operator
Country
US
Launch date
2023-10-22
Launch site
AFETR
Launch vehicle
Mass (kg)
RCS (m²)

Purposes: comms

External: N2YO · Heavens-Above · Gunter

§ Orbital elements

Epoch: 2026-09-20T00:01:32.137824Z

Period
94.27 min
Inclination
43.0021°
Eccentricity
0.0001592
Mean motion
15.27579094 rev/d
Perigee alt
482.0 km
Apogee alt
484.1 km
Semi-major
6,861.2 km
B*
2.3489e-5
RAAN
115.1754°
Arg perigee
269.2961°
Mean anomaly
90.7708°
Rev number
16,201

§ Raw data

STARLINK-307701 58132U 23162Q   26263.00106641  .00000384  00000+0  23489-4 0  99942 58132  43.0021 115.1754 0001592 269.2961  90.7708 15.27579094162017

JSON: /api/v1/satellites/58132 · /tle

For live sub-satellite position, see the globe view (requires WebGL).

§ Visibility from observer

Set your observer location to see the next 7 days of passes ≥ 10°. The values pass through the URL so the page stays shareable.

No JS? Fill the form by hand. The geolocation button needs JavaScript.